Time,TemperatureF,DewpointF,PressureIn,WindDirection,WindDirectionDegrees,WindSpeedMPH,WindSpeedGustMPH,Humidity,HourlyPrecipIn,Conditions,Clouds,dailyrainin,SoftwareType,DateUTC
2013-06-06 00:10:00,69.6,64.0,29.87,East,79,3.0,4.0,83,0.00,,,0.00,weatherlink.com 1.10,2013-06-06 04:10:00,
2013-06-06 00:25:00,69.6,64.0,29.87,East,81,2.0,3.0,83,0.00,,,0.00,weatherlink.com 1.10,2013-06-06 04:25:00,
2013-06-06 00:41:00,69.8,65.0,29.86,East,91,2.0,4.0,84,0.00,,,0.00,weatherlink.com 1.10,2013-06-06 04:41:00,
2013-06-06 00:55:00,69.7,65.0,29.86,ESE,107,0.0,1.0,84,0.00,,,0.00,weatherlink.com 1.10,2013-06-06 04:55:00,
2013-06-06 01:10:00,69.4,65.0,29.86,South,175,1.0,1.0,85,0.00,,,0.00,weatherlink.com 1.10,2013-06-06 05:10:00,
2013-06-06 01:25:00,68.9,65.0,29.86,SE,146,0.0,1.0,86,0.00,,,0.00,weatherlink.com 1.10,2013-06-06 05:25:00,
2013-06-06 01:41:00,68.7,64.0,29.85,ESE,113,0.0,1.0,86,0.00,,,0.00,weatherlink.com 1.10,2013-06-06 05:41:00,
2013-06-06 01:55:00,68.4,64.0,29.85,ESE,113,0.0,1.0,87,0.00,,,0.00,weatherlink.com 1.10,2013-06-06 05:55:00,
2013-06-06 02:11:00,68.0,64.0,29.84,NNE,31,0.0,1.0,88,0.00,,,0.00,weatherlink.com 1.10,2013-06-06 06:11:00,
2013-06-06 02:26:00,67.9,65.0,29.84,NNE,31,0.0,0.0,89,0.00,,,0.00,weatherlink.com 1.10,2013-06-06 06:26:00,
2013-06-06 02:41:00,67.9,65.0,29.83,North,360,0.0,1.0,89,0.00,,,0.00,weatherlink.com 1.10,2013-06-06 06:41:00,
2013-06-06 02:56:00,67.9,65.0,29.82,ENE,63,0.0,1.0,90,0.00,,,0.00,weatherlink.com 1.10,2013-06-06 06:56:00,
2013-06-06 03:11:00,68.1,65.0,29.82,SSE,158,1.0,3.0,91,0.00,,,0.00,weatherlink.com 1.10,2013-06-06 07:11:00,
2013-06-06 03:26:00,68.4,66.0,29.81,ESE,105,0.0,1.0,91,0.00,,,0.00,weatherlink.com 1.10,2013-06-06 07:26:00,
2013-06-06 03:42:00,68.6,66.0,29.81,SSW,195,1.0,2.0,91,0.00,,,0.00,weatherlink.com 1.10,2013-06-06 07:42:00,
2013-06-06 03:56:00,68.3,65.0,29.81,SSW,195,1.0,3.0,90,0.00,,,0.00,weatherlink.com 1.10,2013-06-06 07:56:00,
2013-06-06 04:12:00,68.0,65.0,29.80,ESE,122,0.0,3.0,90,0.00,,,0.00,weatherlink.com 1.10,2013-06-06 08:12:00,
2013-06-06 04:27:00,67.6,65.0,29.80,SSE,166,1.0,1.0,91,0.00,,,0.00,weatherlink.com 1.10,2013-06-06 08:27:00,
2013-06-06 04:42:00,67.4,65.0,29.79,SSE,164,0.0,1.0,92,0.00,,,0.00,weatherlink.com 1.10,2013-06-06 08:42:00,
2013-06-06 04:57:00,67.3,65.0,29.79,SSE,156,0.0,0.0,92,0.00,,,0.00,weatherlink.com 1.10,2013-06-06 08:57:00,
2013-06-06 05:12:00,67.3,65.0,29.79,ESE,105,1.0,1.0,92,0.00,,,0.00,weatherlink.com 1.10,2013-06-06 09:12:00,
2013-06-06 05:27:00,67.3,65.0,29.78,East,90,1.0,1.0,93,0.00,,,0.00,weatherlink.com 1.10,2013-06-06 09:27:00,
2013-06-06 05:43:00,67.4,65.0,29.78,East,89,0.0,0.0,93,0.00,,,0.00,weatherlink.com 1.10,2013-06-06 09:43:00,
2013-06-06 05:57:00,67.1,65.0,29.79,East,89,0.0,0.0,93,0.00,,,0.00,weatherlink.com 1.10,2013-06-06 09:57:00,
2013-06-06 06:13:00,67.9,66.0,29.79,NNE,15,0.0,0.0,93,0.00,,,0.00,weatherlink.com 1.10,2013-06-06 10:13:00,
2013-06-06 06:28:00,68.3,66.0,29.79,East,101,1.0,2.0,92,0.00,,,0.00,weatherlink.com 1.10,2013-06-06 10:28:00,
2013-06-06 06:43:00,69.3,67.0,29.79,East,98,2.0,2.0,92,0.00,,,0.00,weatherlink.com 1.10,2013-06-06 10:43:00,
2013-06-06 06:58:00,69.7,67.0,29.79,ESE,111,0.0,2.0,91,0.00,,,0.00,weatherlink.com 1.10,2013-06-06 10:58:00,
2013-06-06 07:13:00,71.3,68.0,29.79,South,188,1.0,2.0,90,0.00,,,0.00,weatherlink.com 1.10,2013-06-06 11:13:00,
2013-06-06 07:28:00,72.7,69.0,29.78,ENE,75,0.0,5.0,87,0.00,,,0.00,weatherlink.com 1.10,2013-06-06 11:28:00,
2013-06-06 07:43:00,75.0,69.0,29.78,SE,139,2.0,7.0,82,0.00,,,0.00,weatherlink.com 1.10,2013-06-06 11:43:00,
2013-06-06 07:58:00,75.3,69.0,29.78,SE,133,4.0,7.0,81,0.00,,,0.00,weatherlink.com 1.10,2013-06-06 11:58:00,
2013-06-06 08:13:00,75.5,69.0,29.78,South,186,8.0,14.0,81,0.00,,,0.00,weatherlink.com 1.10,2013-06-06 12:13:00,
2013-06-06 08:29:00,76.2,69.0,29.78,South,176,5.0,17.0,78,0.00,,,0.00,weatherlink.com 1.10,2013-06-06 12:29:00,
2013-06-06 08:44:00,76.4,69.0,29.78,South,186,5.0,19.0,78,0.00,,,0.00,weatherlink.com 1.10,2013-06-06 12:44:00,
2013-06-06 08:59:00,77.1,69.0,29.79,SSE,158,11.0,15.0,77,0.00,,,0.00,weatherlink.com 1.10,2013-06-06 12:59:00,
2013-06-06 09:14:00,77.2,70.0,29.79,SSW,197,11.0,18.0,77,0.00,,,0.00,weatherlink.com 1.10,2013-06-06 13:14:00,
2013-06-06 09:29:00,77.3,69.0,29.79,SE,141,7.0,21.0,75,0.00,,,0.00,weatherlink.com 1.10,2013-06-06 13:29:00,
2013-06-06 09:44:00,77.6,70.0,29.79,South,174,7.0,17.0,76,0.00,,,0.00,weatherlink.com 1.10,2013-06-06 13:44:00,
2013-06-06 09:59:00,77.7,69.0,29.78,SSE,166,7.0,15.0,74,0.00,,,0.00,weatherlink.com 1.10,2013-06-06 13:59:00,
2013-06-06 10:14:00,77.7,69.0,29.78,SSE,155,11.0,16.0,74,0.00,,,0.00,weatherlink.com 1.10,2013-06-06 14:14:00,
2013-06-06 10:29:00,77.7,69.0,29.79,South,180,13.0,14.0,75,0.00,,,0.00,weatherlink.com 1.10,2013-06-06 14:29:00,
2013-06-06 10:44:00,77.7,70.0,29.79,ESE,114,7.0,16.0,76,0.00,,,0.00,weatherlink.com 1.10,2013-06-06 14:44:00,
2013-06-06 10:59:00,77.9,70.0,29.79,SSW,212,9.0,15.0,76,0.00,,,0.00,weatherlink.com 1.10,2013-06-06 14:59:00,
2013-06-06 11:14:00,78.0,70.0,29.79,SSW,208,13.0,16.0,76,0.00,,,0.00,weatherlink.com 1.10,2013-06-06 15:14:00,
2013-06-06 11:29:00,78.0,70.0,29.79,SE,146,6.0,17.0,76,0.00,,,0.00,weatherlink.com 1.10,2013-06-06 15:29:00,
2013-06-06 11:44:00,78.8,70.0,29.79,South,176,5.0,13.0,75,0.00,,,0.00,weatherlink.com 1.10,2013-06-06 15:44:00,
2013-06-06 11:59:00,79.3,70.0,29.79,SSE,150,8.0,19.0,73,0.00,,,0.00,weatherlink.com 1.10,2013-06-06 15:59:00,
2013-06-06 12:14:00,79.2,70.0,29.78,SW,214,9.0,17.0,73,0.00,,,0.00,weatherlink.com 1.10,2013-06-06 16:14:00,
2013-06-06 12:29:00,79.3,70.0,29.78,SSE,153,11.0,17.0,74,0.00,,,0.00,weatherlink.com 1.10,2013-06-06 16:29:00,
2013-06-06 12:45:00,79.4,70.0,29.78,SSW,195,10.0,13.0,73,0.00,,,0.00,weatherlink.com 1.10,2013-06-06 16:45:00,
2013-06-06 13:02:00,79.0,70.0,29.78,South,172,12.0,17.0,73,0.00,,,0.00,weatherlink.com 1.10,2013-06-06 17:02:00,
2013-06-06 13:15:00,79.7,70.0,29.77,SSW,201,7.0,17.0,72,0.00,,,0.00,weatherlink.com 1.10,2013-06-06 17:15:00,
2013-06-06 13:31:00,80.4,71.0,29.76,South,191,15.0,16.0,73,0.00,,,0.00,weatherlink.com 1.10,2013-06-06 17:31:00,
2013-06-06 13:45:00,79.6,70.0,29.75,SSE,159,11.0,18.0,73,0.00,,,0.00,weatherlink.com 1.10,2013-06-06 17:45:00,
2013-06-06 14:02:00,78.8,70.0,29.75,SE,141,7.0,14.0,74,0.00,,,0.00,weatherlink.com 1.10,2013-06-06 18:02:00,
2013-06-06 14:15:00,78.6,70.0,29.74,SSW,207,8.0,17.0,76,0.00,,,0.00,weatherlink.com 1.10,2013-06-06 18:15:00,
2013-06-06 14:31:00,78.0,71.0,29.74,SSW,210,9.0,16.0,78,0.00,,,0.00,weatherlink.com 1.10,2013-06-06 18:31:00,
2013-06-06 14:46:00,77.3,70.0,29.74,SE,140,11.0,15.0,79,0.00,,,0.00,weatherlink.com 1.10,2013-06-06 18:46:00,
2013-06-06 15:02:00,76.8,71.0,29.73,South,191,3.0,11.0,81,0.00,,,0.00,weatherlink.com 1.10,2013-06-06 19:02:00,
2013-06-06 15:16:00,76.4,71.0,29.73,SE,134,4.0,6.0,83,0.01,,,0.01,weatherlink.com 1.10,2013-06-06 19:16:00,
2013-06-06 15:31:00,76.0,72.0,29.73,ESE,120,1.0,6.0,86,0.01,,,0.01,weatherlink.com 1.10,2013-06-06 19:31:00,
2013-06-06 15:46:00,76.1,72.0,29.72,SSW,198,1.0,5.0,87,0.02,,,0.02,weatherlink.com 1.10,2013-06-06 19:46:00,
2013-06-06 16:02:00,76.7,72.0,29.71,SE,127,4.0,7.0,86,0.02,,,0.02,weatherlink.com 1.10,2013-06-06 20:02:00,
2013-06-06 16:16:00,76.7,72.0,29.71,SSE,152,7.0,9.0,85,0.01,,,0.02,weatherlink.com 1.10,2013-06-06 20:16:00,
2013-06-06 16:32:00,75.9,72.0,29.70,SSE,156,5.0,9.0,87,0.03,,,0.04,weatherlink.com 1.10,2013-06-06 20:32:00,
2013-06-06 16:47:00,75.4,72.0,29.71,SSW,194,4.0,8.0,89,0.09,,,0.11,weatherlink.com 1.10,2013-06-06 20:47:00,
2013-06-06 17:02:00,75.0,73.0,29.70,SSW,210,2.0,5.0,92,0.11,,,0.13,weatherlink.com 1.10,2013-06-06 21:02:00,
2013-06-06 17:17:00,75.0,73.0,29.70,SSW,205,4.0,5.0,92,0.11,,,0.13,weatherlink.com 1.10,2013-06-06 21:17:00,
2013-06-06 17:32:00,74.8,72.0,29.69,SSE,157,5.0,8.0,92,0.10,,,0.14,weatherlink.com 1.10,2013-06-06 21:32:00,
2013-06-06 17:47:00,74.7,72.0,29.69,South,186,9.0,9.0,91,0.03,,,0.14,weatherlink.com 1.10,2013-06-06 21:47:00,
2013-06-06 18:03:00,74.8,72.0,29.68,South,191,6.0,8.0,91,0.01,,,0.14,weatherlink.com 1.10,2013-06-06 22:03:00,
2013-06-06 18:18:00,74.5,72.0,29.69,South,184,6.0,8.0,91,0.01,,,0.14,weatherlink.com 1.10,2013-06-06 22:18:00,
2013-06-06 18:33:00,74.6,72.0,29.68,WNW,295,3.0,7.0,91,0.00,,,0.14,weatherlink.com 1.10,2013-06-06 22:33:00,
2013-06-06 18:48:00,74.6,72.0,29.68,South,172,2.0,7.0,92,0.00,,,0.14,weatherlink.com 1.10,2013-06-06 22:48:00,
2013-06-06 19:04:00,74.6,72.0,29.69,SW,223,0.0,4.0,92,0.00,,,0.14,weatherlink.com 1.10,2013-06-06 23:04:00,
2013-06-06 19:18:00,74.7,73.0,29.69,WSW,253,1.0,2.0,93,0.00,,,0.14,weatherlink.com 1.10,2013-06-06 23:18:00,
2013-06-06 19:33:00,74.7,73.0,29.69,SW,236,1.0,3.0,93,0.00,,,0.14,weatherlink.com 1.10,2013-06-06 23:33:00,
2013-06-06 19:48:00,74.4,72.0,29.69,WSW,250,2.0,2.0,92,0.00,,,0.14,weatherlink.com 1.10,2013-06-06 23:48:00,
2013-06-06 20:04:00,74.2,72.0,29.69,SSW,210,0.0,3.0,93,0.00,,,0.14,weatherlink.com 1.10,2013-06-07 00:04:00,
2013-06-06 20:18:00,74.0,72.0,29.70,West,271,1.0,2.0,93,0.00,,,0.14,weatherlink.com 1.10,2013-06-07 00:18:00,
2013-06-06 20:34:00,73.8,72.0,29.70,SSW,204,1.0,2.0,93,0.00,,,0.14,weatherlink.com 1.10,2013-06-07 00:34:00,
2013-06-06 20:49:00,73.6,72.0,29.70,WSW,253,2.0,2.0,94,0.00,,,0.14,weatherlink.com 1.10,2013-06-07 00:49:00,
2013-06-06 21:05:00,73.5,72.0,29.70,SSW,212,1.0,2.0,94,0.00,,,0.14,weatherlink.com 1.10,2013-06-07 01:05:00,
2013-06-06 21:19:00,73.5,72.0,29.70,SSW,212,1.0,3.0,94,0.00,,,0.14,weatherlink.com 1.10,2013-06-07 01:19:00,
2013-06-06 21:34:00,73.4,72.0,29.70,South,179,2.0,5.0,95,0.00,,,0.14,weatherlink.com 1.10,2013-06-07 01:34:00,
2013-06-06 21:49:00,73.4,72.0,29.71,SSW,194,2.0,3.0,95,0.00,,,0.14,weatherlink.com 1.10,2013-06-07 01:49:00,
2013-06-06 22:05:00,73.3,72.0,29.71,South,183,3.0,4.0,95,0.00,,,0.14,weatherlink.com 1.10,2013-06-07 02:05:00,
2013-06-06 22:19:00,73.4,72.0,29.71,SSW,193,3.0,4.0,95,0.00,,,0.14,weatherlink.com 1.10,2013-06-07 02:19:00,
2013-06-06 22:35:00,73.5,72.0,29.71,SW,219,4.0,6.0,95,0.00,,,0.14,weatherlink.com 1.10,2013-06-07 02:35:00,
2013-06-06 22:51:00,73.6,72.0,29.71,SSW,198,2.0,5.0,95,0.00,,,0.14,weatherlink.com 1.10,2013-06-07 02:51:00,
2013-06-06 23:06:00,73.6,72.0,29.71,SSW,211,3.0,4.0,95,0.00,,,0.14,weatherlink.com 1.10,2013-06-07 03:06:00,
2013-06-06 23:21:00,73.6,72.0,29.70,South,190,3.0,4.0,95,0.00,,,0.14,weatherlink.com 1.10,2013-06-07 03:21:00,
2013-06-06 23:35:00,73.6,72.0,29.70,SSE,163,2.0,3.0,95,0.00,,,0.14,weatherlink.com 1.10,2013-06-07 03:35:00,
2013-06-06 23:51:00,73.6,72.0,29.70,SSW,205,2.0,3.0,95,0.00,,,0.14,weatherlink.com 1.10,2013-06-07 03:51:00,